Tracking 18852 objects as of 23-Nov-2017
HD Live streaming from Space Station
objects crossing your sky now

FENGYUN 1C DEB

Track FENGYUN 1C DEB now!
10-day predictions


NORAD ID: 31185
Int'l Code: 1999-025BJP
Perigee: 865.2 km
Apogee: 924.5 km
Inclination: 99.0 °
Period: 102.7 minutes
Semi major axis: 7265 km
RCS: 0.0101 m2 (small)
Launch date: May 10, 1999
Source: People's Republic of China (PRC)
Launch site: Taiyaun Space Center, China (TSC)

Note: This is SATELLITE DEBRIS
aabbcc
Your satellite tracking list
Your tracking list is empty




NASA's NSSDC Master Catalog

Two Line Element Set (TLE):
1 31185U 99025BJP 17319.29781142 +.00000368 +00000-0 +26922-3 0  9999
2 31185 099.0166 349.1838 0040864 035.0160 325.3680 14.01756564210047
Source of the keplerian elements: AFSPC